This is the latest recevied weather packets stored in our database for station/object N5LSN. If no packets are shown the sender has not sent any weather packets the latest 10 day(s).
| Time | Temp. | Humidity | Pressure | Rain* | Wind** | Luminosity | Snow |
|---|---|---|---|---|---|---|---|
| 1777741751 | 20.56° C | 39% | 1020.6 hPa | 0 mm | - | 182 W/m² | - |
| 1777741447 | 20° C | 40% | 1020.6 hPa | 0 mm | - | 975 W/m² | - |
| 1777741142 | 20° C | 42% | 1020.7 hPa | 0 mm | - | 945 W/m² | - |
| 1777740840 | 20.56° C | 40% | 1020.8 hPa | 0 mm | - | 981 W/m² | - |
| 1777740537 | 20° C | 46% | 1020.7 hPa | 0 mm | - | 971 W/m² | - |
| 1777740234 | 20° C | 45% | 1020.7 hPa | 0 mm | - | 949 W/m² | - |
| 1777739930 | 19.44° C | 46% | 1020.8 hPa | 0 mm | - | 197 W/m² | - |
| 1777739626 | 19.44° C | 48% | 1020.8 hPa | 0 mm | - | 143 W/m² | - |
| 1777739324 | 20° C | 44% | 1020.9 hPa | 0 mm | - | 958 W/m² | - |
| 1777739020 | 19.44° C | 44% | 1020.9 hPa | 0 mm | - | 909 W/m² | - |
| 1777738718 | 19.44° C | 44% | 1020.8 hPa | 0 mm | - | 874 W/m² | - |
| 1777738413 | 20° C | 45% | 1021 hPa | 0 mm | - | 869 W/m² | - |
| 1777738112 | 18.89° C | 45% | 1021 hPa | 0 mm | - | 846 W/m² | - |
| 1777737810 | 19.44° C | 45% | 1021.1 hPa | 0 mm | - | 842 W/m² | - |
| 1777737508 | 18.89° C | 48% | 1021.1 hPa | 0 mm | - | 828 W/m² | - |
| 1777737206 | 18.89° C | 47% | 1020.9 hPa | 0 mm | - | 819 W/m² | - |
| 1777736901 | 18.89° C | 45% | 1021 hPa | 0 mm | - | 810 W/m² | - |
| 1777736288 | 18.89° C | 48% | 1021 hPa | 0 mm | - | 785 W/m² | - |
| 1777735985 | 18.33° C | 51% | 1020.8 hPa | 0 mm | - | 773 W/m² | - |
| 1777735682 | 18.33° C | 53% | 1020.9 hPa | 0 mm | - | 759 W/m² | - |
| 1777735380 | 18.89° C | 52% | 1020.8 hPa | 0 mm | - | 745 W/m² | - |
| 1777735077 | 18.33° C | 49% | 1020.8 hPa | 0 mm | - | 731 W/m² | - |
| 1777734774 | 18.89° C | 53% | 1020.9 hPa | 0 mm | - | 715 W/m² | - |
| 1777734472 | 18.33° C | 57% | 1020.6 hPa | 0 mm | - | 704 W/m² | - |
| 1777734168 | 18.33° C | 61% | 1020.8 hPa | 0 mm | - | 688 W/m² | - |
* Rain latest hour (hover to see other rain measurements)
** Current wind speed in m/s (hover to see current wind gust speed)